| time (UTC) | temp F | wind direction | speed MPH | gust MPH | rain 1hr in | rain 24hr in | rain mn in | humidity % | barometer mb |
| 20260502211631 | 74 | 188 | 1.0 | 6.0 | 0.00 | 0.00 | 0.00 | 18 | 1015.2 |
| 20260502211124 | 73 | 258 | 2.0 | 8.0 | 0.00 | 0.00 | 0.00 | 20 | 1015.1 |
| 20260502210621 | 72 | 209 | 2.0 | 6.0 | 0.00 | 0.00 | 0.00 | 20 | 1015.1 |
| 20260502210118 | 70 | 61 | 6.0 | 12.0 | 0.00 | 0.00 | 0.00 | 18 | 1015.2 |
| 20260502205614 | 73 | 285 | 3.0 | 3.0 | 0.00 | 0.00 | 0.00 | 18 | 1015.5 |
| 20260502205111 | 70 | 230 | 4.0 | 12.0 | 0.00 | 0.00 | 0.00 | 17 | 1015.8 |
| 20260502204608 | 70 | 67 | 11.0 | 17.0 | 0.00 | 0.00 | 0.00 | 18 | 1015.4 |
| 20260502204106 | 69 | 57 | 9.0 | 13.0 | 0.00 | 0.00 | 0.00 | 18 | 1015.7 |
| 20260502203603 | 70 | 0 | 4.0 | 9.0 | 0.00 | 0.00 | 0.00 | 18 | 1015.6 |
| 20260502203100 | 72 | 73 | 3.0 | 6.0 | 0.00 | 0.00 | 0.00 | 18 | 1015.6 |
| 20260502202555 | 72 | 203 | 2.0 | 9.0 | 0.00 | 0.00 | 0.00 | 17 | 1015.7 |
| 20260502202054 | 69 | 242 | 2.0 | 10.0 | 0.00 | 0.00 | 0.00 | 18 | 1015.6 |
| 20260502201549 | 71 | 100 | 4.0 | 6.0 | 0.00 | 0.00 | 0.00 | 17 | 1015.6 |
| 20260502201041 | 74 | 284 | 1.0 | 3.0 | 0.00 | 0.00 | 0.00 | 19 | 1015.9 |
| 20260502200537 | 71 | 303 | 3.0 | 6.0 | 0.00 | 0.00 | 0.00 | 18 | 1015.9 |
| 20260502200035 | 71 | 284 | 4.0 | 6.0 | 0.00 | 0.00 | 0.00 | 21 | 1016.3 |
| 20260502195532 | 71 | 206 | 4.0 | 13.0 | 0.00 | 0.00 | 0.00 | 18 | 1016.3 |
| 20260502195028 | 71 | 214 | 8.0 | 11.0 | 0.00 | 0.00 | 0.00 | 16 | 1016.2 |
| 20260502194525 | 70 | 348 | 2.0 | 3.0 | 0.00 | 0.00 | 0.00 | 17 | 1016.1 |
| 20260502194021 | 68 | 54 | 4.0 | 9.0 | 0.00 | 0.00 | 0.00 | 18 | 1016.3 |
| 20260502193518 | 71 | 155 | 6.0 | 11.0 | 0.00 | 0.00 | 0.00 | 17 | 1016.4 |
| 20260502193015 | 72 | 69 | 4.0 | 6.0 | 0.00 | 0.00 | 0.00 | 17 | 1016.4 |
| 20260502192510 | 70 | 241 | 3.0 | 4.0 | 0.00 | 0.00 | 0.00 | 18 | 1016.2 |
| 20260502192008 | 68 | 85 | 2.0 | 6.0 | 0.00 | 0.00 | 0.00 | 17 | 1016.5 |
| 20260502191505 | 70 | 100 | 5.0 | 8.0 | 0.00 | 0.00 | 0.00 | 19 | 1016.4 |
| 20260502191003 | 70 | 82 | 4.0 | 5.0 | 0.00 | 0.00 | 0.00 | 18 | 1016.3 |
| 20260502190500 | 67 | 329 | 0.0 | 15.0 | 0.00 | 0.00 | 0.00 | 18 | 1016.5 |
| 20260502185956 | 67 | 50 | 8.0 | 12.0 | 0.00 | 0.00 | 0.00 | 18 | 1016.8 |
| 20260502185452 | 68 | 124 | 8.0 | 13.0 | 0.00 | 0.00 | 0.00 | 19 | 1016.4 |
| 20260502184949 | 69 | 255 | 0.0 | 8.0 | 0.00 | 0.00 | 0.00 | 18 | 1016.6 |
| 20260502184444 | 69 | 187 | 2.0 | 6.0 | 0.00 | 0.00 | 0.00 | 18 | 1016.6 |
| 20260502183941 | 68 | 45 | 7.0 | 7.0 | 0.00 | 0.00 | 0.00 | 20 | 1016.9 |
| 20260502183437 | 68 | 101 | 5.0 | 13.0 | 0.00 | 0.00 | 0.00 | 19 | 1016.9 |
| 20260502182932 | 66 | 180 | 2.0 | 11.0 | 0.00 | 0.00 | 0.00 | 19 | 1016.8 |
| 20260502182428 | 66 | 45 | 13.0 | 17.0 | 0.00 | 0.00 | 0.00 | 18 | 1017.0 |
| 20260502181924 | 67 | 88 | 6.0 | 14.0 | 0.00 | 0.00 | 0.00 | 19 | 1017.0 |
| 20260502181423 | 68 | 106 | 10.0 | 16.0 | 0.00 | 0.00 | 0.00 | 18 | 1017.1 |
| 20260502180921 | 68 | 105 | 6.0 | 14.0 | 0.00 | 0.00 | 0.00 | 19 | 1017.0 |
| 20260502180418 | 68 | 146 | 4.0 | 9.0 | 0.00 | 0.00 | 0.00 | 19 | 1017.1 |
| 20260502170337 | 66 | 117 | 7.0 | 13.0 | 0.00 | 0.00 | 0.00 | 19 | 1017.5 |
| 20260502164324 | 65 | 71 | 2.0 | 6.0 | 0.00 | 0.00 | 0.00 | 19 | 1017.2 |
| 20260502163820 | 64 | 53 | 7.0 | 9.0 | 0.00 | 0.00 | 0.00 | 21 | 1017.0 |
| 20260502163316 | 65 | 39 | 5.0 | 10.0 | 0.00 | 0.00 | 0.00 | 21 | 1017.0 |
| 20260502162814 | 66 | 213 | 1.0 | 4.0 | 0.00 | 0.00 | 0.00 | 21 | 1017.0 |
| 20260502162310 | 66 | 133 | 4.0 | 10.0 | 0.00 | 0.00 | 0.00 | 20 | 1017.1 |
| 20260502161808 | 65 | 112 | 6.0 | 9.0 | 0.00 | 0.00 | 0.00 | 20 | 1017.4 |
| 20260502161304 | 64 | 50 | 5.0 | 12.0 | 0.00 | 0.00 | 0.00 | 20 | 1017.1 |
| 20260502160802 | 64 | 43 | 5.0 | 8.0 | 0.00 | 0.00 | 0.00 | 21 | 1016.9 |
| 20260502160300 | 62 | 70 | 4.0 | 15.0 | 0.00 | 0.00 | 0.00 | 20 | 1017.1 |
| 20260502152229 | 60 | 30 | 4.0 | 5.0 | 0.00 | 0.00 | 0.00 | 25 | 1017.1 |
| 20260502151727 | 59 | 87 | 3.0 | 7.0 | 0.00 | 0.00 | 0.00 | 25 | 1017.4 |
| 20260502151224 | 59 | 76 | 4.0 | 7.0 | 0.00 | 0.00 | 0.00 | 26 | 1017.2 |
| 20260502150722 | 58 | 68 | 3.0 | 7.0 | 0.00 | 0.00 | 0.00 | 28 | 1017.1 |
| 20260502150218 | 57 | 63 | 6.0 | 9.0 | 0.00 | 0.00 | 0.00 | 26 | 1017.1 |
| 20260502130606 | 43 | 31 | 5.0 | 8.0 | 0.00 | 0.00 | 0.00 | 35 | 1015.9 |
| 20260502130104 | 40 | 12 | 4.0 | 5.0 | 0.00 | 0.00 | 0.00 | 43 | 1016.2 |
| 20260502123549 | 45 | 37 | 6.0 | 11.0 | 0.00 | 0.00 | 0.00 | 32 | 1015.8 |
| 20260502123045 | 45 | 57 | 2.0 | 11.0 | 0.00 | 0.00 | 0.00 | 33 | 1015.7 |
| 20260502122542 | 44 | 42 | 4.0 | 9.0 | 0.00 | 0.00 | 0.00 | 34 | 1015.8 |
| 20260502122040 | 44 | 37 | 4.0 | 6.0 | 0.00 | 0.00 | 0.00 | 33 | 1015.9 |
| 20260502121537 | 44 | 89 | 3.0 | 7.0 | 0.00 | 0.00 | 0.00 | 33 | 1015.8 |
| 20260502121034 | 44 | 31 | 3.0 | 7.0 | 0.00 | 0.00 | 0.00 | 33 | 1015.8 |
| 20260502120530 | 44 | 37 | 4.0 | 7.0 | 0.00 | 0.00 | 0.00 | 34 | 1015.7 |
| 20260502115525 | 45 | 47 | 4.0 | 10.0 | 0.00 | 0.00 | 0.00 | 34 | 1015.8 |
| 20260502115021 | 44 | 56 | 5.0 | 8.0 | 0.00 | 0.00 | 0.00 | 34 | 1015.7 |
| 20260502114518 | 44 | 59 | 4.0 | 9.0 | 0.00 | 0.00 | 0.00 | 34 | 1015.8 |
| 20260502114014 | 45 | 52 | 5.0 | 12.0 | 0.00 | 0.00 | 0.00 | 34 | 1015.7 |
| 20260502113512 | 45 | 54 | 6.0 | 7.0 | 0.00 | 0.00 | 0.00 | 34 | 1015.9 |
| 20260502113011 | 45 | 63 | 6.0 | 10.0 | 0.00 | 0.00 | 0.00 | 34 | 1015.8 |
| 20260502112508 | 44 | 43 | 5.0 | 9.0 | 0.00 | 0.00 | 0.00 | 34 | 1015.9 |
| 20260502112005 | 44 | 42 | 3.0 | 6.0 | 0.00 | 0.00 | 0.00 | 34 | 1016.2 |
| 20260502111502 | 44 | 44 | 4.0 | 6.0 | 0.00 | 0.00 | 0.00 | 35 | 1016.1 |
| 20260502111000 | 44 | 106 | 4.0 | 7.0 | 0.00 | 0.00 | 0.00 | 36 | 1016.1 |
| 20260502110457 | 43 | 39 | 3.0 | 6.0 | 0.00 | 0.00 | 0.00 | 37 | 1015.9 |
| 20260502105954 | 43 | 32 | 7.0 | 10.0 | 0.00 | 0.00 | 0.00 | 37 | 1015.8 |
| 20260502105452 | 44 | 65 | 3.0 | 5.0 | 0.00 | 0.00 | 0.00 | 37 | 1015.8 |
| 20260502104944 | 44 | 66 | 5.0 | 7.0 | 0.00 | 0.00 | 0.00 | 37 | 1016.1 |
| 20260502104441 | 44 | 62 | 4.0 | 8.0 | 0.00 | 0.00 | 0.00 | 37 | 1016.1 |
| 20260502103939 | 44 | 65 | 6.0 | 6.0 | 0.00 | 0.00 | 0.00 | 37 | 1015.8 |
| 20260502103436 | 44 | 68 | 5.0 | 10.0 | 0.00 | 0.00 | 0.00 | 37 | 1015.7 |
| 20260502102933 | 44 | 80 | 6.0 | 10.0 | 0.00 | 0.00 | 0.00 | 37 | 1016.1 |
| 20260502102430 | 44 | 53 | 6.0 | 8.0 | 0.00 | 0.00 | 0.00 | 38 | 1016.1 |
| 20260502101927 | 44 | 56 | 6.0 | 10.0 | 0.00 | 0.00 | 0.00 | 39 | 1016.3 |
| 20260502101425 | 44 | 53 | 5.0 | 10.0 | 0.00 | 0.00 | 0.00 | 38 | 1015.8 |
| 20260502100922 | 44 | 50 | 6.0 | 9.0 | 0.00 | 0.00 | 0.00 | 38 | 1015.9 |
| 20260502100416 | 45 | 46 | 4.0 | 8.0 | 0.00 | 0.00 | 0.00 | 38 | 1015.9 |
| 20260502091349 | 44 | 46 | 6.0 | 9.0 | 0.00 | 0.00 | 0.00 | 41 | 1015.6 |
| 20260502090847 | 43 | 54 | 5.0 | 9.0 | 0.00 | 0.00 | 0.00 | 42 | 1015.7 |
| 20260502090343 | 43 | 65 | 4.0 | 8.0 | 0.00 | 0.00 | 0.00 | 43 | 1016.1 |
| 20260502071238 | 45 | 53 | 6.0 | 9.0 | 0.00 | 0.00 | 0.00 | 42 | 1016.1 |
| 20260502070737 | 46 | 22 | 5.0 | 11.0 | 0.00 | 0.00 | 0.00 | 41 | 1016.2 |
| 20260502070234 | 46 | 46 | 7.0 | 15.0 | 0.00 | 0.00 | 0.00 | 41 | 1016.3 |
| 20260502065732 | 46 | 29 | 3.0 | 8.0 | 0.00 | 0.00 | 0.00 | 41 | 1016.2 |
| 20260502065230 | 46 | 30 | 6.0 | 10.0 | 0.00 | 0.00 | 0.00 | 41 | 1016.3 |
| 20260502064728 | 46 | 53 | 3.0 | 9.0 | 0.00 | 0.00 | 0.00 | 42 | 1016.1 |
| 20260502064226 | 45 | 89 | 2.0 | 9.0 | 0.00 | 0.00 | 0.00 | 43 | 1015.9 |
| 20260502063723 | 46 | 51 | 7.0 | 9.0 | 0.00 | 0.00 | 0.00 | 42 | 1015.9 |
| 20260502063221 | 45 | 66 | 5.0 | 8.0 | 0.00 | 0.00 | 0.00 | 44 | 1015.8 |
| 20260502062717 | 45 | 22 | 9.0 | 11.0 | 0.00 | 0.00 | 0.00 | 43 | 1015.8 |
| 20260502062216 | 46 | 55 | 5.0 | 9.0 | 0.00 | 0.00 | 0.00 | 43 | 1015.9 |
| 20260502061714 | 46 | 74 | 4.0 | 8.0 | 0.00 | 0.00 | 0.00 | 43 | 1015.8 |
| 20260502061210 | 46 | 69 | 4.0 | 9.0 | 0.00 | 0.00 | 0.00 | 43 | 1015.6 |
| 20260502060701 | 46 | 58 | 6.0 | 6.0 | 0.00 | 0.00 | 0.00 | 44 | 1015.8 |
| 20260502060157 | 46 | 40 | 3.0 | 9.0 | 0.00 | 0.00 | 0.00 | 44 | 1015.6 |
| 20260502055655 | 46 | 46 | 3.0 | 8.0 | 0.00 | 0.00 | 0.00 | 44 | 1015.6 |
| 20260502055152 | 46 | 81 | 3.0 | 8.0 | 0.00 | 0.00 | 0.00 | 44 | 1015.7 |
| 20260502054651 | 46 | 52 | 3.0 | 9.0 | 0.00 | 0.00 | 0.00 | 43 | 1015.6 |
| 20260502054148 | 46 | 44 | 5.0 | 8.0 | 0.00 | 0.00 | 0.00 | 43 | 1015.7 |
| 20260502053645 | 47 | 52 | 4.0 | 8.0 | 0.00 | 0.00 | 0.00 | 43 | 1015.4 |
| 20260502053142 | 47 | 73 | 2.0 | 7.0 | 0.00 | 0.00 | 0.00 | 44 | 1015.4 |
| 20260502052641 | 47 | 57 | 4.0 | 8.0 | 0.00 | 0.00 | 0.00 | 43 | 1015.5 |
| 20260502052138 | 47 | 50 | 5.0 | 5.0 | 0.00 | 0.00 | 0.00 | 44 | 1015.6 |
| 20260502051636 | 47 | 49 | 4.0 | 10.0 | 0.00 | 0.00 | 0.00 | 44 | 1015.4 |
| 20260502051134 | 47 | 40 | 5.0 | 9.0 | 0.00 | 0.00 | 0.00 | 43 | 1015.5 |
| 20260502050630 | 48 | 17 | 3.0 | 11.0 | 0.00 | 0.00 | 0.00 | 42 | 1015.6 |
| 20260502050127 | 48 | 39 | 7.0 | 11.0 | 0.00 | 0.00 | 0.00 | 43 | 1015.6 |
| 20260502045624 | 47 | 55 | 7.0 | 10.0 | 0.00 | 0.00 | 0.00 | 44 | 1015.4 |
| 20260502045121 | 47 | 53 | 5.0 | 10.0 | 0.00 | 0.00 | 0.00 | 44 | 1015.4 |
| 20260502044617 | 48 | 50 | 5.0 | 11.0 | 0.00 | 0.00 | 0.00 | 43 | 1015.2 |
| 20260502044114 | 48 | 52 | 6.0 | 10.0 | 0.00 | 0.00 | 0.00 | 44 | 1015.4 |
| 20260502043613 | 48 | 49 | 4.0 | 7.0 | 0.00 | 0.00 | 0.00 | 44 | 1015.1 |
| 20260502043109 | 49 | 80 | 5.0 | 8.0 | 0.00 | 0.00 | 0.00 | 43 | 1015.1 |
| 20260502042608 | 50 | 70 | 5.0 | 10.0 | 0.00 | 0.00 | 0.00 | 42 | 1015.2 |
| 20260502042106 | 50 | 16 | 5.0 | 9.0 | 0.00 | 0.00 | 0.00 | 40 | 1015.0 |
| 20260502041603 | 49 | 9 | 3.0 | 6.0 | 0.00 | 0.00 | 0.00 | 42 | 1014.9 |
| 20260502041100 | 50 | 42 | 3.0 | 7.0 | 0.00 | 0.00 | 0.00 | 41 | 1015.0 |
| 20260502040557 | 50 | 47 | 6.0 | 8.0 | 0.00 | 0.00 | 0.00 | 41 | 1014.9 |
| 20260502040054 | 50 | 75 | 6.0 | 8.0 | 0.00 | 0.00 | 0.00 | 41 | 1014.8 |
| 20260502035550 | 51 | 34 | 6.0 | 11.0 | 0.00 | 0.00 | 0.00 | 40 | 1014.8 |
| 20260502035048 | 51 | 94 | 2.0 | 9.0 | 0.00 | 0.00 | 0.00 | 41 | 1014.5 |
| 20260502034545 | 51 | 58 | 6.0 | 9.0 | 0.00 | 0.00 | 0.00 | 40 | 1014.5 |
| 20260502034044 | 51 | 47 | 4.0 | 10.0 | 0.00 | 0.00 | 0.00 | 40 | 1014.5 |
| 20260502033542 | 51 | 84 | 4.0 | 10.0 | 0.00 | 0.00 | 0.00 | 40 | 1014.3 |
| 20260502033038 | 51 | 89 | 2.0 | 4.0 | 0.00 | 0.00 | 0.00 | 41 | 1014.2 |
| 20260502032534 | 52 | 96 | 3.0 | 6.0 | 0.00 | 0.00 | 0.00 | 40 | 1013.9 |
| 20260502032031 | 52 | 64 | 5.0 | 8.0 | 0.00 | 0.00 | 0.00 | 39 | 1013.9 |
| 20260502031529 | 53 | 79 | 3.0 | 9.0 | 0.00 | 0.00 | 0.00 | 38 | 1013.9 |
| 20260502031027 | 54 | 96 | 3.0 | 6.0 | 0.00 | 0.00 | 0.00 | 37 | 1013.8 |
| 20260502030526 | 54 | 60 | 3.0 | 5.0 | 0.00 | 0.00 | 0.00 | 37 | 1013.9 |
| 20260502030023 | 54 | 48 | 5.0 | 6.0 | 0.00 | 0.00 | 0.00 | 36 | 1013.8 |
| 20260502025520 | 55 | 18 | 2.0 | 3.0 | 0.00 | 0.00 | 0.00 | 35 | 1013.7 |
| 20260502025018 | 56 | 49 | 4.0 | 4.0 | 0.00 | 0.00 | 0.00 | 34 | 1013.7 |
| 20260502024515 | 57 | 12 | 2.0 | 3.0 | 0.00 | 0.00 | 0.00 | 33 | 1013.5 |
| 20260502024014 | 57 | 354 | 2.0 | 3.0 | 0.00 | 0.00 | 0.00 | 32 | 1013.6 |
| 20260502023511 | 58 | 50 | 4.0 | 8.0 | 0.00 | 0.00 | 0.00 | 31 | 1013.4 |
| 20260502023008 | 58 | 55 | 4.0 | 9.0 | 0.00 | 0.00 | 0.00 | 31 | 1013.6 |
| 20260502022504 | 59 | 101 | 4.0 | 8.0 | 0.00 | 0.00 | 0.00 | 30 | 1013.5 |
| 20260502022002 | 59 | 42 | 9.0 | 15.0 | 0.00 | 0.00 | 0.00 | 30 | 1013.5 |
| 20260502021459 | 59 | 58 | 11.0 | 14.0 | 0.00 | 0.00 | 0.00 | 30 | 1013.2 |
| 20260502020956 | 59 | 87 | 3.0 | 9.0 | 0.00 | 0.00 | 0.00 | 29 | 1013.0 |
| 20260502020454 | 60 | 80 | 3.0 | 11.0 | 0.00 | 0.00 | 0.00 | 29 | 1013.5 |
| 20260502015950 | 60 | 323 | 4.0 | 11.0 | 0.00 | 0.00 | 0.00 | 28 | 1013.5 |
| 20260502015448 | 60 | 17 | 4.0 | 11.0 | 0.00 | 0.00 | 0.00 | 28 | 1013.2 |
| 20260502014944 | 61 | 339 | 3.0 | 19.0 | 0.00 | 0.00 | 0.00 | 27 | 1013.1 |
| 20260502014441 | 61 | 43 | 3.0 | 11.0 | 0.00 | 0.00 | 0.00 | 26 | 1012.9 |
| 20260502013938 | 61 | 46 | 6.0 | 19.0 | 0.00 | 0.00 | 0.00 | 26 | 1012.9 |
| 20260502013433 | 62 | 26 | 6.0 | 11.0 | 0.00 | 0.00 | 0.00 | 23 | 1012.9 |
| 20260502012930 | 62 | 52 | 4.0 | 6.0 | 0.00 | 0.00 | 0.00 | 22 | 1013.1 |
| 20260502012428 | 62 | 28 | 4.0 | 10.0 | 0.00 | 0.00 | 0.00 | 22 | 1012.7 |
| 20260502011925 | 62 | 71 | 6.0 | 11.0 | 0.00 | 0.00 | 0.00 | 22 | 1012.5 |
| 20260502011421 | 62 | 24 | 4.0 | 9.0 | 0.00 | 0.00 | 0.00 | 24 | 1012.8 |
| 20260502010918 | 62 | 42 | 3.0 | 10.0 | 0.00 | 0.00 | 0.00 | 24 | 1012.8 |
| 20260502010415 | 62 | 50 | 6.0 | 7.0 | 0.00 | 0.00 | 0.00 | 25 | 1012.8 |
| 20260502005911 | 62 | 99 | 2.0 | 3.0 | 0.00 | 0.00 | 0.00 | 26 | 1012.4 |
| 20260502005410 | 62 | 262 | 2.0 | 4.0 | 0.00 | 0.00 | 0.00 | 29 | 1012.4 |
| 20260502004907 | 62 | 52 | 7.0 | 8.0 | 0.00 | 0.00 | 0.00 | 25 | 1012.7 |
| 20260502004403 | 63 | 17 | 4.0 | 10.0 | 0.00 | 0.00 | 0.00 | 25 | 1012.4 |
| 20260502003900 | 64 | 66 | 5.0 | 6.0 | 0.00 | 0.00 | 0.00 | 25 | 1012.5 |
| 20260502003357 | 66 | 59 | 4.0 | 4.0 | 0.00 | 0.00 | 0.00 | 24 | 1012.5 |
| 20260502002854 | 65 | 298 | 1.0 | 2.0 | 0.00 | 0.00 | 0.00 | 24 | 1012.7 |
| 20260502002351 | 64 | 306 | 4.0 | 6.0 | 0.00 | 0.00 | 0.00 | 24 | 1012.4 |
| 20260502001848 | 64 | 324 | 4.0 | 11.0 | 0.00 | 0.00 | 0.00 | 25 | 1012.7 |
| 20260502001346 | 63 | 9 | 0.0 | 3.0 | 0.00 | 0.00 | 0.00 | 25 | 1012.5 |
| 20260502000843 | 61 | 306 | 4.0 | 4.0 | 0.00 | 0.00 | 0.00 | 26 | 1012.9 |
| 20260502000341 | 61 | 53 | 11.0 | 15.0 | 0.00 | 0.00 | 0.00 | 26 | 1012.9 |
| 20260501235837 | 62 | 15 | 0.0 | 4.0 | 0.00 | 0.00 | 0.00 | 26 | 1012.8 |
| 20260501235333 | 62 | 52 | 4.0 | 9.0 | 0.00 | 0.00 | 0.00 | 25 | 1012.8 |
| 20260501234828 | 62 | 38 | 10.0 | 14.0 | 0.00 | 0.00 | 0.00 | 25 | 1012.4 |
| 20260501234326 | 63 | 71 | 11.0 | 14.0 | 0.00 | 0.00 | 0.00 | 24 | 1012.4 |
| 20260501233824 | 64 | 17 | 8.0 | 17.0 | 0.00 | 0.00 | 0.00 | 24 | 1012.2 |
| 20260501233321 | 66 | 51 | 8.0 | 10.0 | 0.00 | 0.00 | 0.00 | 23 | 1012.3 |
| 20260501232817 | 66 | 257 | 2.0 | 5.0 | 0.00 | 0.00 | 0.00 | 23 | 1012.1 |
| 20260501232314 | 66 | 269 | 0.0 | 3.0 | 0.00 | 0.00 | 0.00 | 22 | 1012.2 |
| 20260501231812 | 64 | 48 | 2.0 | 9.0 | 0.00 | 0.00 | 0.00 | 23 | 1012.2 |
| 20260501231309 | 64 | 51 | 5.0 | 13.0 | 0.00 | 0.00 | 0.00 | 23 | 1012.3 |
| 20260501230808 | 64 | 89 | 4.0 | 9.0 | 0.00 | 0.00 | 0.00 | 25 | 1012.1 |
| 20260501230306 | 65 | 47 | 6.0 | 6.0 | 0.00 | 0.00 | 0.00 | 23 | 1012.3 |
| 20260501225803 | 65 | 67 | 0.0 | 5.0 | 0.00 | 0.00 | 0.00 | 23 | 1012.4 |
| 20260501225301 | 65 | 18 | 4.0 | 10.0 | 0.00 | 0.00 | 0.00 | 23 | 1012.4 |
| 20260501224756 | 65 | 306 | 0.0 | 7.0 | 0.00 | 0.00 | 0.00 | 22 | 1012.1 |
| 20260501224254 | 63 | 142 | 2.0 | 6.0 | 0.00 | 0.00 | 0.00 | 23 | 1012.4 |
| 20260501223750 | 62 | 147 | 2.0 | 7.0 | 0.00 | 0.00 | 0.00 | 25 | 1012.7 |
| 20260501223247 | 62 | 39 | 7.0 | 8.0 | 0.00 | 0.00 | 0.00 | 26 | 1012.4 |
| 20260501222742 | 63 | 69 | 7.0 | 16.0 | 0.00 | 0.00 | 0.00 | 26 | 1012.7 |
| 20260501222240 | 62 | 16 | 2.0 | 4.0 | 0.00 | 0.00 | 0.00 | 28 | 1012.8 |
| 20260501221737 | 60 | 42 | 8.0 | 8.0 | 0.00 | 0.00 | 0.00 | 27 | 1012.5 |
| 20260501221234 | 60 | 5 | 2.0 | 6.0 | 0.00 | 0.00 | 0.00 | 30 | 1012.8 |
| 20260501220731 | 59 | 61 | 6.0 | 16.0 | 0.00 | 0.00 | 0.00 | 28 | 1012.9 |
| 20260501220229 | 59 | 86 | 5.0 | 17.0 | 0.00 | 0.00 | 0.00 | 29 | 1012.5 |
| 20260501215726 | 59 | 86 | 6.0 | 13.0 | 0.00 | 0.00 | 0.00 | 29 | 1013.0 |
| 20260501215221 | 58 | 45 | 10.0 | 15.0 | 0.00 | 0.00 | 0.00 | 32 | 1013.0 |
| 20260501214716 | 57 | 66 | 6.0 | 16.0 | 0.00 | 0.00 | 0.00 | 34 | 1012.8 |
| 20260501214207 | 57 | 39 | 12.0 | 14.0 | 0.00 | 0.00 | 0.00 | 34 | 1013.0 |
| 20260501213703 | 59 | 26 | 6.0 | 15.0 | 0.00 | 0.00 | 0.00 | 34 | 1013.1 |
| 20260501213159 | 60 | 47 | 9.0 | 13.0 | 0.00 | 0.00 | 0.00 | 28 | 1012.8 |
| 20260501212655 | 60 | 38 | 6.0 | 10.0 | 0.00 | 0.00 | 0.00 | 25 | 1012.9 |
| 20260501212153 | 62 | 322 | 6.0 | 6.0 | 0.00 | 0.00 | 0.00 | 26 | 1012.8 |